Year,Month,Day,Hour,Minute,Value (Times are PST for insolation in W/m^2)
2017,06,15,00,00,0.00
2017,06,15,00,01,0.00
2017,06,15,00,02,0.00
2017,06,15,00,03,0.00
2017,06,15,00,04,0.00
2017,06,15,00,05,0.00
2017,06,15,00,06,0.00
2017,06,15,00,07,0.00
2017,06,15,00,08,0.00
2017,06,15,00,09,0.00
2017,06,15,00,10,0.00
2017,06,15,00,11,0.00
2017,06,15,00,12,0.00
2017,06,15,00,13,0.00
2017,06,15,00,14,0.00
2017,06,15,00,15,0.00
2017,06,15,00,16,0.00
2017,06,15,00,17,0.00
2017,06,15,00,18,0.00
2017,06,15,00,19,0.00
2017,06,15,00,20,0.00
2017,06,15,00,21,0.00
2017,06,15,00,22,0.00
2017,06,15,00,23,0.00
2017,06,15,00,24,0.00
2017,06,15,00,25,0.00
2017,06,15,00,26,0.00
2017,06,15,00,27,0.00
2017,06,15,00,28,0.00
2017,06,15,00,29,0.00
2017,06,15,00,30,0.00
2017,06,15,00,31,0.00
2017,06,15,00,32,0.00
2017,06,15,00,33,0.00
2017,06,15,00,34,0.00
2017,06,15,00,35,0.00
2017,06,15,00,36,0.00
2017,06,15,00,37,0.00
2017,06,15,00,38,0.00
2017,06,15,00,39,0.00
2017,06,15,00,40,0.00
2017,06,15,00,41,0.00
2017,06,15,00,42,0.00
2017,06,15,00,43,0.00
2017,06,15,00,44,0.00
2017,06,15,00,45,0.00
2017,06,15,00,46,0.00
2017,06,15,00,47,0.00
2017,06,15,00,48,0.00
2017,06,15,00,49,0.00
2017,06,15,00,50,0.00
2017,06,15,00,51,0.00
2017,06,15,00,52,0.00
2017,06,15,00,53,0.00
2017,06,15,00,54,0.00
2017,06,15,00,55,0.00
2017,06,15,00,56,0.00
2017,06,15,00,57,0.00
2017,06,15,00,58,0.00
2017,06,15,00,59,0.00
2017,06,15,01,00,0.00
2017,06,15,01,01,0.00
2017,06,15,01,02,0.00
2017,06,15,01,03,0.00
2017,06,15,01,04,0.00
2017,06,15,01,05,0.00
2017,06,15,01,06,0.00
2017,06,15,01,07,0.00
2017,06,15,01,08,0.00
2017,06,15,01,09,0.00
2017,06,15,01,10,0.00
2017,06,15,01,11,0.00
2017,06,15,01,12,0.00
2017,06,15,01,13,0.00
2017,06,15,01,14,0.00
2017,06,15,01,15,0.00
2017,06,15,01,16,0.00
2017,06,15,01,17,0.00
2017,06,15,01,18,0.00
2017,06,15,01,19,0.00
2017,06,15,01,20,0.00
2017,06,15,01,21,0.00
2017,06,15,01,22,0.00
2017,06,15,01,23,0.00
2017,06,15,01,24,0.00
2017,06,15,01,25,0.00
2017,06,15,01,26,0.00
2017,06,15,01,27,0.00
2017,06,15,01,28,0.00
2017,06,15,01,29,0.00
2017,06,15,01,30,0.00
2017,06,15,01,31,0.00
2017,06,15,01,32,0.00
2017,06,15,01,33,0.00
2017,06,15,01,34,0.00
2017,06,15,01,35,0.00
2017,06,15,01,36,0.00
2017,06,15,01,37,0.00
2017,06,15,01,38,0.00
2017,06,15,01,39,0.00
2017,06,15,01,40,0.00
2017,06,15,01,41,0.00
2017,06,15,01,42,0.00
2017,06,15,01,43,0.00
2017,06,15,01,44,0.00
2017,06,15,01,45,0.00
2017,06,15,01,46,0.00
2017,06,15,01,47,0.00
2017,06,15,01,48,0.00
2017,06,15,01,49,0.00
2017,06,15,01,50,0.00
2017,06,15,01,51,0.00
2017,06,15,01,52,0.00
2017,06,15,01,53,0.00
2017,06,15,01,54,0.00
2017,06,15,01,55,0.00
2017,06,15,01,56,0.00
2017,06,15,01,57,0.00
2017,06,15,01,58,0.00
2017,06,15,01,59,0.00
2017,06,15,02,00,0.00
2017,06,15,02,01,0.00
2017,06,15,02,02,0.00
2017,06,15,02,03,0.00
2017,06,15,02,04,0.00
2017,06,15,02,05,0.00
2017,06,15,02,06,0.00
2017,06,15,02,07,0.00
2017,06,15,02,08,0.00
2017,06,15,02,09,0.00
2017,06,15,02,10,0.00
2017,06,15,02,11,0.00
2017,06,15,02,12,0.00
2017,06,15,02,13,0.00
2017,06,15,02,14,0.00
2017,06,15,02,15,0.00
2017,06,15,02,16,0.00
2017,06,15,02,17,0.00
2017,06,15,02,18,0.00
2017,06,15,02,19,0.00
2017,06,15,02,20,0.00
2017,06,15,02,21,0.00
2017,06,15,02,22,0.00
2017,06,15,02,23,0.00
2017,06,15,02,24,0.00
2017,06,15,02,25,0.00
2017,06,15,02,26,0.00
2017,06,15,02,27,0.00
2017,06,15,02,28,0.00
2017,06,15,02,29,0.00
2017,06,15,02,30,0.00
2017,06,15,02,31,0.00
2017,06,15,02,32,0.00
2017,06,15,02,33,0.00
2017,06,15,02,34,0.00
2017,06,15,02,35,0.00
2017,06,15,02,36,0.00
2017,06,15,02,37,0.00
2017,06,15,02,38,0.00
2017,06,15,02,39,0.00
2017,06,15,02,40,0.00
2017,06,15,02,41,0.00
2017,06,15,02,42,0.00
2017,06,15,02,43,0.00
2017,06,15,02,44,0.00
2017,06,15,02,45,0.00
2017,06,15,02,46,0.00
2017,06,15,02,47,0.00
2017,06,15,02,48,0.00
2017,06,15,02,49,0.00
2017,06,15,02,50,0.00
2017,06,15,02,51,0.00
2017,06,15,02,52,0.00
2017,06,15,02,53,0.00
2017,06,15,02,54,0.00
2017,06,15,02,55,0.00
2017,06,15,02,56,0.00
2017,06,15,02,57,0.00
2017,06,15,02,58,0.00
2017,06,15,02,59,0.00
2017,06,15,03,00,0.00
2017,06,15,03,01,0.00
2017,06,15,03,02,0.00
2017,06,15,03,03,0.00
2017,06,15,03,04,0.00
2017,06,15,03,05,0.00
2017,06,15,03,06,0.00
2017,06,15,03,07,0.00
2017,06,15,03,08,0.00
2017,06,15,03,09,0.00
2017,06,15,03,10,0.00
2017,06,15,03,11,0.00
2017,06,15,03,12,0.00
2017,06,15,03,13,0.00
2017,06,15,03,14,0.00
2017,06,15,03,15,0.00
2017,06,15,03,16,0.00
2017,06,15,03,17,0.00
2017,06,15,03,18,0.00
2017,06,15,03,19,0.00
2017,06,15,03,20,0.00
2017,06,15,03,21,0.00
2017,06,15,03,22,0.00
2017,06,15,03,23,0.00
2017,06,15,03,24,0.00
2017,06,15,03,25,0.00
2017,06,15,03,26,0.00
2017,06,15,03,27,0.00
2017,06,15,03,28,0.00
2017,06,15,03,29,0.00
2017,06,15,03,30,0.00
2017,06,15,03,31,0.00
2017,06,15,03,32,0.00
2017,06,15,03,33,0.00
2017,06,15,03,34,0.00
2017,06,15,03,35,0.00
2017,06,15,03,36,0.00
2017,06,15,03,37,0.00
2017,06,15,03,38,0.00
2017,06,15,03,39,0.00
2017,06,15,03,40,0.00
2017,06,15,03,41,0.00
2017,06,15,03,42,0.00
2017,06,15,03,43,0.00
2017,06,15,03,44,0.00
2017,06,15,03,45,0.00
2017,06,15,03,46,0.00
2017,06,15,03,47,0.00
2017,06,15,03,48,0.00
2017,06,15,03,49,0.00
2017,06,15,03,50,0.00
2017,06,15,03,51,0.00
2017,06,15,03,52,0.00
2017,06,15,03,53,0.00
2017,06,15,03,54,0.00
2017,06,15,03,55,0.00
2017,06,15,03,56,0.00
2017,06,15,03,57,0.00
2017,06,15,03,58,0.00
2017,06,15,03,59,0.00
2017,06,15,04,00,0.00
2017,06,15,04,01,0.00
2017,06,15,04,02,0.00
2017,06,15,04,03,0.00
2017,06,15,04,04,0.00
2017,06,15,04,05,0.00
2017,06,15,04,06,0.00
2017,06,15,04,07,0.00
2017,06,15,04,08,0.00
2017,06,15,04,09,0.00
2017,06,15,04,10,0.00
2017,06,15,04,11,0.00
2017,06,15,04,12,0.00
2017,06,15,04,13,0.00
2017,06,15,04,14,0.00
2017,06,15,04,15,0.00
2017,06,15,04,16,0.00
2017,06,15,04,17,0.00
2017,06,15,04,18,0.00
2017,06,15,04,19,0.00
2017,06,15,04,20,0.00
2017,06,15,04,21,0.00
2017,06,15,04,22,0.00
2017,06,15,04,23,0.00
2017,06,15,04,24,0.00
2017,06,15,04,25,0.00
2017,06,15,04,26,0.00
2017,06,15,04,27,0.00
2017,06,15,04,28,0.00
2017,06,15,04,29,0.00
2017,06,15,04,30,0.00
2017,06,15,04,31,0.00
2017,06,15,04,32,0.00
2017,06,15,04,33,0.00
2017,06,15,04,34,0.00
2017,06,15,04,35,0.00
2017,06,15,04,36,0.00
2017,06,15,04,37,0.00
2017,06,15,04,38,0.00
2017,06,15,04,39,0.00
2017,06,15,04,40,0.00
2017,06,15,04,41,0.00
2017,06,15,04,42,0.00
2017,06,15,04,43,0.00
2017,06,15,04,44,0.00
2017,06,15,04,45,0.00
2017,06,15,04,46,0.00
2017,06,15,04,47,0.00
2017,06,15,04,48,0.00
2017,06,15,04,49,0.00
2017,06,15,04,50,0.00
2017,06,15,04,51,0.00
2017,06,15,04,52,0.00
2017,06,15,04,53,0.00
2017,06,15,04,54,0.00
2017,06,15,04,55,0.00
2017,06,15,04,56,0.00
2017,06,15,04,57,0.00
2017,06,15,04,58,0.00
2017,06,15,04,59,0.00
2017,06,15,05,00,0.00
2017,06,15,05,01,0.00
2017,06,15,05,02,0.00
2017,06,15,05,03,0.00
2017,06,15,05,04,0.00
2017,06,15,05,05,0.00
2017,06,15,05,06,0.00
2017,06,15,05,07,0.00
2017,06,15,05,08,0.00
2017,06,15,05,09,0.00
2017,06,15,05,10,0.00
2017,06,15,05,11,0.00
2017,06,15,05,12,0.00
2017,06,15,05,13,0.00
2017,06,15,05,14,0.00
2017,06,15,05,15,0.00
2017,06,15,05,16,0.00
2017,06,15,05,17,0.00
2017,06,15,05,18,0.00
2017,06,15,05,19,0.00
2017,06,15,05,20,0.00
2017,06,15,05,21,0.00
2017,06,15,05,22,0.00
2017,06,15,05,23,0.00
2017,06,15,05,24,0.00
2017,06,15,05,25,0.00
2017,06,15,05,26,0.00
2017,06,15,05,27,0.00
2017,06,15,05,28,0.00
2017,06,15,05,29,0.00
2017,06,15,05,30,0.00
2017,06,15,05,31,0.00
2017,06,15,05,32,0.00
2017,06,15,05,33,0.00
2017,06,15,05,34,0.00
2017,06,15,05,35,0.00
2017,06,15,05,36,0.00
2017,06,15,05,37,0.00
2017,06,15,05,38,0.00
2017,06,15,05,39,0.00
2017,06,15,05,40,0.30
2017,06,15,05,41,5.00
2017,06,15,05,42,5.00
2017,06,15,05,43,5.00
2017,06,15,05,44,6.10
2017,06,15,05,45,7.00
2017,06,15,05,46,7.00
2017,06,15,05,47,7.00
2017,06,15,05,48,7.40
2017,06,15,05,49,9.00
2017,06,15,05,50,9.80
2017,06,15,05,51,11.00
2017,06,15,05,52,11.00
2017,06,15,05,53,11.80
2017,06,15,05,54,12.00
2017,06,15,05,55,11.00
2017,06,15,05,56,11.00
2017,06,15,05,57,11.00
2017,06,15,05,58,11.00
2017,06,15,05,59,9.60
2017,06,15,06,00,9.00
2017,06,15,06,01,9.00
2017,06,15,06,02,9.00
2017,06,15,06,03,9.00
2017,06,15,06,04,9.00
2017,06,15,06,05,9.00
2017,06,15,06,06,9.00
2017,06,15,06,07,9.00
2017,06,15,06,08,9.10
2017,06,15,06,09,11.20
2017,06,15,06,10,12.00
2017,06,15,06,11,12.80
2017,06,15,06,12,15.10
2017,06,15,06,13,18.00
2017,06,15,06,14,22.20
2017,06,15,06,15,23.20
2017,06,15,06,16,26.40
2017,06,15,06,17,28.00
2017,06,15,06,18,28.90
2017,06,15,06,19,31.10
2017,06,15,06,20,32.00
2017,06,15,06,21,30.40
2017,06,15,06,22,27.90
2017,06,15,06,23,24.70
2017,06,15,06,24,22.40
2017,06,15,06,25,21.00
2017,06,15,06,26,19.90
2017,06,15,06,27,19.00
2017,06,15,06,28,18.20
2017,06,15,06,29,17.90
2017,06,15,06,30,16.00
2017,06,15,06,31,16.60
2017,06,15,06,32,18.00
2017,06,15,06,33,18.00
2017,06,15,06,34,16.60
2017,06,15,06,35,17.70
2017,06,15,06,36,18.00
2017,06,15,06,37,18.20
2017,06,15,06,38,19.60
2017,06,15,06,39,21.00
2017,06,15,06,40,21.00
2017,06,15,06,41,21.00
2017,06,15,06,42,21.00
2017,06,15,06,43,20.90
2017,06,15,06,44,18.80
2017,06,15,06,45,18.00
2017,06,15,06,46,18.00
2017,06,15,06,47,16.90
2017,06,15,06,48,16.00
2017,06,15,06,49,14.40
2017,06,15,06,50,14.00
2017,06,15,06,51,14.00
2017,06,15,06,52,13.40
2017,06,15,06,53,12.00
2017,06,15,06,54,13.10
2017,06,15,06,55,14.00
2017,06,15,06,56,14.00
2017,06,15,06,57,14.10
2017,06,15,06,58,16.30
2017,06,15,06,59,18.30
2017,06,15,07,00,19.80
2017,06,15,07,01,23.80
2017,06,15,07,02,28.70
2017,06,15,07,03,31.60
2017,06,15,07,04,32.00
2017,06,15,07,05,33.00
2017,06,15,07,06,37.60
2017,06,15,07,07,39.40
2017,06,15,07,08,42.30
2017,06,15,07,09,45.40
2017,06,15,07,10,48.40
2017,06,15,07,11,52.90
2017,06,15,07,12,55.70
2017,06,15,07,13,53.70
2017,06,15,07,14,52.10
2017,06,15,07,15,48.70
2017,06,15,07,16,47.00
2017,06,15,07,17,44.50
2017,06,15,07,18,39.00
2017,06,15,07,19,33.00
2017,06,15,07,20,33.00
2017,06,15,07,21,33.00
2017,06,15,07,22,33.00
2017,06,15,07,23,34.40
2017,06,15,07,24,36.70
2017,06,15,07,25,39.00
2017,06,15,07,26,44.90
2017,06,15,07,27,49.00
2017,06,15,07,28,47.70
2017,06,15,07,29,44.90
2017,06,15,07,30,42.60
2017,06,15,07,31,42.00
2017,06,15,07,32,40.30
2017,06,15,07,33,42.00
2017,06,15,07,34,42.60
2017,06,15,07,35,44.00
2017,06,15,07,36,45.10
2017,06,15,07,37,48.10
2017,06,15,07,38,52.30
2017,06,15,07,39,54.10
2017,06,15,07,40,58.00
2017,06,15,07,41,58.60
2017,06,15,07,42,58.30
2017,06,15,07,43,54.90
2017,06,15,07,44,55.40
2017,06,15,07,45,56.00
2017,06,15,07,46,56.00
2017,06,15,07,47,56.00
2017,06,15,07,48,56.60
2017,06,15,07,49,58.00
2017,06,15,07,50,55.80
2017,06,15,07,51,50.60
2017,06,15,07,52,47.40
2017,06,15,07,53,47.00
2017,06,15,07,54,47.40
2017,06,15,07,55,48.40
2017,06,15,07,56,47.00
2017,06,15,07,57,48.10
2017,06,15,07,58,50.40
2017,06,15,07,59,53.40
2017,06,15,08,00,55.90
2017,06,15,08,01,55.60
2017,06,15,08,02,53.70
2017,06,15,08,03,52.10
2017,06,15,08,04,52.10
2017,06,15,08,05,55.10
2017,06,15,08,06,56.00
2017,06,15,08,07,63.30
2017,06,15,08,08,74.60
2017,06,15,08,09,78.30
2017,06,15,08,10,85.00
2017,06,15,08,11,94.70
2017,06,15,08,12,98.00
2017,06,15,08,13,101.20
2017,06,15,08,14,102.30
2017,06,15,08,15,108.00
2017,06,15,08,16,113.00
2017,06,15,08,17,107.20
2017,06,15,08,18,90.60
2017,06,15,08,19,70.80
2017,06,15,08,20,56.30
2017,06,15,08,21,51.10
2017,06,15,08,22,49.00
2017,06,15,08,23,49.00
2017,06,15,08,24,50.70
2017,06,15,08,25,56.90
2017,06,15,08,26,64.80
2017,06,15,08,27,71.10
2017,06,15,08,28,75.70
2017,06,15,08,29,76.00
2017,06,15,08,30,76.00
2017,06,15,08,31,73.50
2017,06,15,08,32,67.20
2017,06,15,08,33,62.90
2017,06,15,08,34,62.00
2017,06,15,08,35,59.90
2017,06,15,08,36,56.00
2017,06,15,08,37,55.10
2017,06,15,08,38,52.20
2017,06,15,08,39,49.90
2017,06,15,08,40,49.00
2017,06,15,08,41,50.70
2017,06,15,08,42,54.00
2017,06,15,08,43,56.30
2017,06,15,08,44,59.20
2017,06,15,08,45,65.40
2017,06,15,08,46,77.20
2017,06,15,08,47,91.30
2017,06,15,08,48,102.40
2017,06,15,08,49,109.00
2017,06,15,08,50,114.00
2017,06,15,08,51,121.80
2017,06,15,08,52,144.40
2017,06,15,08,53,152.10
2017,06,15,08,54,150.40
2017,06,15,08,55,149.00
2017,06,15,08,56,147.70
2017,06,15,08,57,141.40
2017,06,15,08,58,137.80
2017,06,15,08,59,133.70
2017,06,15,09,00,132.00
2017,06,15,09,01,134.00
2017,06,15,09,02,135.00
2017,06,15,09,03,141.10
2017,06,15,09,04,149.20
2017,06,15,09,05,157.20
2017,06,15,09,06,162.00
2017,06,15,09,07,162.00
2017,06,15,09,08,155.80
2017,06,15,09,09,147.20
2017,06,15,09,10,137.30
2017,06,15,09,11,127.10
2017,06,15,09,12,122.10
2017,06,15,09,13,119.10
2017,06,15,09,14,119.10
2017,06,15,09,15,120.00
2017,06,15,09,16,120.80
2017,06,15,09,17,124.70
2017,06,15,09,18,125.00
2017,06,15,09,19,123.90
2017,06,15,09,20,117.70
2017,06,15,09,21,106.90
2017,06,15,09,22,97.20
2017,06,15,09,23,87.60
2017,06,15,09,24,76.40
2017,06,15,09,25,66.10
2017,06,15,09,26,60.10
2017,06,15,09,27,53.90
2017,06,15,09,28,48.80
2017,06,15,09,29,47.00
2017,06,15,09,30,48.60
2017,06,15,09,31,52.80
2017,06,15,09,32,56.70
2017,06,15,09,33,60.90
2017,06,15,09,34,63.80
2017,06,15,09,35,66.10
2017,06,15,09,36,67.00
2017,06,15,09,37,63.00
2017,06,15,09,38,54.30
2017,06,15,09,39,45.60
2017,06,15,09,40,37.10
2017,06,15,09,41,33.00
2017,06,15,09,42,33.00
2017,06,15,09,43,33.00
2017,06,15,09,44,34.60
2017,06,15,09,45,35.00
2017,06,15,09,46,34.60
2017,06,15,09,47,32.70
2017,06,15,09,48,31.10
2017,06,15,09,49,28.90
2017,06,15,09,50,28.00
2017,06,15,09,51,28.00
2017,06,15,09,52,30.10
2017,06,15,09,53,34.20
2017,06,15,09,54,39.30
2017,06,15,09,55,40.90
2017,06,15,09,56,43.10
2017,06,15,09,57,44.00
2017,06,15,09,58,44.00
2017,06,15,09,59,42.10
2017,06,15,10,00,41.60
2017,06,15,10,01,40.00
2017,06,15,10,02,40.00
2017,06,15,10,03,38.30
2017,06,15,10,04,38.40
2017,06,15,10,05,41.50
2017,06,15,10,06,43.90
2017,06,15,10,07,43.30
2017,06,15,10,08,39.70
2017,06,15,10,09,39.00
2017,06,15,10,10,39.00
2017,06,15,10,11,39.00
2017,06,15,10,12,37.40
2017,06,15,10,13,38.90
2017,06,15,10,14,40.80
2017,06,15,10,15,44.00
2017,06,15,10,16,44.80
2017,06,15,10,17,46.00
2017,06,15,10,18,50.80
2017,06,15,10,19,53.00
2017,06,15,10,20,66.40
2017,06,15,10,21,73.00
2017,06,15,10,22,78.90
2017,06,15,10,23,84.30
2017,06,15,10,24,87.10
2017,06,15,10,25,86.60
2017,06,15,10,26,83.50
2017,06,15,10,27,81.30
2017,06,15,10,28,84.00
2017,06,15,10,29,88.90
2017,06,15,10,30,93.90
2017,06,15,10,31,103.00
2017,06,15,10,32,111.10
2017,06,15,10,33,111.40
2017,06,15,10,34,107.10
2017,06,15,10,35,102.00
2017,06,15,10,36,102.00
2017,06,15,10,37,105.10
2017,06,15,10,38,106.10
2017,06,15,10,39,95.00
2017,06,15,10,40,81.10
2017,06,15,10,41,70.10
2017,06,15,10,42,61.30
2017,06,15,10,43,58.00
2017,06,15,10,44,58.80
2017,06,15,10,45,58.90
2017,06,15,10,46,56.60
2017,06,15,10,47,60.80
2017,06,15,10,48,72.40
2017,06,15,10,49,90.10
2017,06,15,10,50,101.10
2017,06,15,10,51,102.30
2017,06,15,10,52,95.00
2017,06,15,10,53,84.20
2017,06,15,10,54,72.30
2017,06,15,10,55,63.20
2017,06,15,10,56,54.40
2017,06,15,10,57,46.10
2017,06,15,10,58,44.90
2017,06,15,10,59,48.80
2017,06,15,11,00,57.20
2017,06,15,11,01,73.10
2017,06,15,11,02,89.70
2017,06,15,11,03,101.20
2017,06,15,11,04,107.00
2017,06,15,11,05,105.70
2017,06,15,11,06,100.10
2017,06,15,11,07,94.20
2017,06,15,11,08,102.10
2017,06,15,11,09,115.90
2017,06,15,11,10,121.40
2017,06,15,11,11,128.00
2017,06,15,11,12,128.00
2017,06,15,11,13,128.00
2017,06,15,11,14,128.00
2017,06,15,11,15,118.10
2017,06,15,11,16,113.80
2017,06,15,11,17,125.10
2017,06,15,11,18,144.20
2017,06,15,11,19,149.70
2017,06,15,11,20,148.00
2017,06,15,11,21,134.20
2017,06,15,11,22,125.50
2017,06,15,11,23,127.20
2017,06,15,11,24,133.60
2017,06,15,11,25,137.90
2017,06,15,11,26,125.00
2017,06,15,11,27,119.70
2017,06,15,11,28,125.10
2017,06,15,11,29,127.80
2017,06,15,11,30,136.20
2017,06,15,11,31,133.80
2017,06,15,11,32,128.00
2017,06,15,11,33,126.70
2017,06,15,11,34,121.10
2017,06,15,11,35,111.90
2017,06,15,11,36,103.40
2017,06,15,11,37,96.70
2017,06,15,11,38,88.00
2017,06,15,11,39,88.60
2017,06,15,11,40,90.00
2017,06,15,11,41,91.70
2017,06,15,11,42,89.60
2017,06,15,11,43,88.00
2017,06,15,11,44,71.00
2017,06,15,11,45,67.00
2017,06,15,11,46,67.00
2017,06,15,11,47,61.20
2017,06,15,11,48,53.00
2017,06,15,11,49,43.30
2017,06,15,11,50,39.00
2017,06,15,11,51,40.10
2017,06,15,11,52,43.00
2017,06,15,11,53,50.10
2017,06,15,11,54,63.00
2017,06,15,11,55,77.70
2017,06,15,11,56,88.80
2017,06,15,11,57,90.20
2017,06,15,11,58,90.30
2017,06,15,11,59,99.20
2017,06,15,12,00,107.80
2017,06,15,12,01,110.10
2017,06,15,12,02,101.10
2017,06,15,12,03,108.20
2017,06,15,12,04,113.80
2017,06,15,12,05,104.70
2017,06,15,12,06,102.10
2017,06,15,12,07,95.20
2017,06,15,12,08,97.90
2017,06,15,12,09,90.00
2017,06,15,12,10,83.90
2017,06,15,12,11,81.40
2017,06,15,12,12,83.10
2017,06,15,12,13,86.90
2017,06,15,12,14,89.60
2017,06,15,12,15,87.70
2017,06,15,12,16,90.00
2017,06,15,12,17,100.20
2017,06,15,12,18,104.20
2017,06,15,12,19,110.00
2017,06,15,12,20,133.00
2017,06,15,12,21,156.00
2017,06,15,12,22,151.50
2017,06,15,12,23,146.00
2017,06,15,12,24,136.80
2017,06,15,12,25,115.30
2017,06,15,12,26,93.80
2017,06,15,12,27,85.00
2017,06,15,12,28,80.40
2017,06,15,12,29,81.10
2017,06,15,12,30,93.90
2017,06,15,12,31,117.60
2017,06,15,12,32,137.70
2017,06,15,12,33,142.40
2017,06,15,12,34,162.20
2017,06,15,12,35,162.10
2017,06,15,12,36,159.10
2017,06,15,12,37,156.90
2017,06,15,12,38,160.10
2017,06,15,12,39,160.40
2017,06,15,12,40,146.20
2017,06,15,12,41,136.90
2017,06,15,12,42,145.20
2017,06,15,12,43,149.30
2017,06,15,12,44,156.10
2017,06,15,12,45,170.50
2017,06,15,12,46,192.70
2017,06,15,12,47,200.80
2017,06,15,12,48,188.10
2017,06,15,12,49,183.60
2017,06,15,12,50,208.20
2017,06,15,12,51,232.00
2017,06,15,12,52,215.30
2017,06,15,12,53,187.10
2017,06,15,12,54,184.90
2017,06,15,12,55,183.40
2017,06,15,12,56,165.40
2017,06,15,12,57,144.90
2017,06,15,12,58,129.30
2017,06,15,12,59,117.40
2017,06,15,13,00,113.20
2017,06,15,13,01,105.20
2017,06,15,13,02,104.00
2017,06,15,13,03,105.60
2017,06,15,13,04,109.90
2017,06,15,13,05,109.80
2017,06,15,13,06,105.60
2017,06,15,13,07,96.60
2017,06,15,13,08,86.40
2017,06,15,13,09,81.40
2017,06,15,13,10,72.90
2017,06,15,13,11,70.00
2017,06,15,13,12,67.20
2017,06,15,13,13,66.40
2017,06,15,13,14,62.90
2017,06,15,13,15,56.40
2017,06,15,13,16,57.60
2017,06,15,13,17,65.00
2017,06,15,13,18,71.60
2017,06,15,13,19,82.70
2017,06,15,13,20,86.80
2017,06,15,13,21,86.40
2017,06,15,13,22,87.90
2017,06,15,13,23,90.10
2017,06,15,13,24,97.00
2017,06,15,13,25,91.30
2017,06,15,13,26,84.90
2017,06,15,13,27,83.30
2017,06,15,13,28,83.80
2017,06,15,13,29,84.10
2017,06,15,13,30,87.70
2017,06,15,13,31,83.20
2017,06,15,13,32,70.70
2017,06,15,13,33,57.30
2017,06,15,13,34,46.80
2017,06,15,13,35,44.00
2017,06,15,13,36,37.60
2017,06,15,13,37,38.20
2017,06,15,13,38,34.40
2017,06,15,13,39,33.00
2017,06,15,13,40,33.00
2017,06,15,13,41,33.00
2017,06,15,13,42,33.00
2017,06,15,13,43,31.80
2017,06,15,13,44,27.40
2017,06,15,13,45,25.00
2017,06,15,13,46,25.00
2017,06,15,13,47,25.00
2017,06,15,13,48,25.00
2017,06,15,13,49,25.00
2017,06,15,13,50,25.10
2017,06,15,13,51,26.40
2017,06,15,13,52,28.60
2017,06,15,13,53,30.80
2017,06,15,13,54,32.60
2017,06,15,13,55,30.90
2017,06,15,13,56,28.30
2017,06,15,13,57,27.90
2017,06,15,13,58,26.00
2017,06,15,13,59,26.00
2017,06,15,14,00,26.00
2017,06,15,14,01,26.00
2017,06,15,14,02,26.00
2017,06,15,14,03,25.20
2017,06,15,14,04,21.30
2017,06,15,14,05,21.00
2017,06,15,14,06,21.60
2017,06,15,14,07,23.00
2017,06,15,14,08,24.10
2017,06,15,14,09,27.00
2017,06,15,14,10,29.60
2017,06,15,14,11,29.90
2017,06,15,14,12,27.50
2017,06,15,14,13,24.40
2017,06,15,14,14,23.00
2017,06,15,14,15,23.00
2017,06,15,14,16,24.40
2017,06,15,14,17,25.80
2017,06,15,14,18,29.90
2017,06,15,14,19,33.40
2017,06,15,14,20,35.00
2017,06,15,14,21,35.90
2017,06,15,14,22,37.00
2017,06,15,14,23,37.00
2017,06,15,14,24,38.70
2017,06,15,14,25,39.90
2017,06,15,14,26,40.30
2017,06,15,14,27,43.20
2017,06,15,14,28,46.00
2017,06,15,14,29,44.80
2017,06,15,14,30,42.60
2017,06,15,14,31,42.00
2017,06,15,14,32,46.30
2017,06,15,14,33,56.30
2017,06,15,14,34,67.00
2017,06,15,14,35,70.10
2017,06,15,14,36,75.70
2017,06,15,14,37,81.10
2017,06,15,14,38,85.50
2017,06,15,14,39,97.20
2017,06,15,14,40,111.90
2017,06,15,14,41,114.40
2017,06,15,14,42,109.30
2017,06,15,14,43,110.30
2017,06,15,14,44,118.50
2017,06,15,14,45,120.20
2017,06,15,14,46,111.30
2017,06,15,14,47,109.10
2017,06,15,14,48,99.10
2017,06,15,14,49,93.30
2017,06,15,14,50,89.10
2017,06,15,14,51,90.00
2017,06,15,14,52,90.00
2017,06,15,14,53,87.50
2017,06,15,14,54,79.40
2017,06,15,14,55,81.00
2017,06,15,14,56,81.90
2017,06,15,14,57,85.80
2017,06,15,14,58,94.90
2017,06,15,14,59,99.70
2017,06,15,15,00,100.00
2017,06,15,15,01,100.00
2017,06,15,15,02,97.80
2017,06,15,15,03,89.00
2017,06,15,15,04,85.10
2017,06,15,15,05,84.00
2017,06,15,15,06,89.30
2017,06,15,15,07,106.30
2017,06,15,15,08,112.30
2017,06,15,15,09,110.60
2017,06,15,15,10,125.60
2017,06,15,15,11,144.90
2017,06,15,15,12,146.60
2017,06,15,15,13,148.50
2017,06,15,15,14,153.00
2017,06,15,15,15,162.00
2017,06,15,15,16,165.70
2017,06,15,15,17,174.90
2017,06,15,15,18,178.90
2017,06,15,15,19,184.40
2017,06,15,15,20,187.70
2017,06,15,15,21,187.80
2017,06,15,15,22,186.70
2017,06,15,15,23,198.70
2017,06,15,15,24,210.00
2017,06,15,15,25,211.20
2017,06,15,15,26,207.60
2017,06,15,15,27,210.20
2017,06,15,15,28,202.80
2017,06,15,15,29,204.00
2017,06,15,15,30,203.40
2017,06,15,15,31,202.00
2017,06,15,15,32,200.90
2017,06,15,15,33,202.80
2017,06,15,15,34,202.30
2017,06,15,15,35,197.00
2017,06,15,15,36,195.00
2017,06,15,15,37,195.60
2017,06,15,15,38,198.30
2017,06,15,15,39,202.30
2017,06,15,15,40,205.40
2017,06,15,15,41,212.30
2017,06,15,15,42,224.90
2017,06,15,15,43,235.90
2017,06,15,15,44,243.30
2017,06,15,15,45,247.10
2017,06,15,15,46,253.20
2017,06,15,15,47,255.00
2017,06,15,15,48,251.80
2017,06,15,15,49,250.80
2017,06,15,15,50,245.70
2017,06,15,15,51,243.70
2017,06,15,15,52,240.30
2017,06,15,15,53,235.30
2017,06,15,15,54,237.40
2017,06,15,15,55,248.90
2017,06,15,15,56,266.00
2017,06,15,15,57,290.90
2017,06,15,15,58,276.80
2017,06,15,15,59,264.10
2017,06,15,16,00,254.10
2017,06,15,16,01,256.40
2017,06,15,16,02,231.60
2017,06,15,16,03,227.20
2017,06,15,16,04,235.20
2017,06,15,16,05,250.30
2017,06,15,16,06,248.00
2017,06,15,16,07,251.20
2017,06,15,16,08,250.90
2017,06,15,16,09,263.10
2017,06,15,16,10,281.10
2017,06,15,16,11,302.40
2017,06,15,16,12,333.50
2017,06,15,16,13,348.90
2017,06,15,16,14,347.70
2017,06,15,16,15,335.00
2017,06,15,16,16,352.20
2017,06,15,16,17,367.70
2017,06,15,16,18,354.80
2017,06,15,16,19,315.70
2017,06,15,16,20,294.00
2017,06,15,16,21,301.20
2017,06,15,16,22,354.60
2017,06,15,16,23,367.80
2017,06,15,16,24,379.10
2017,06,15,16,25,378.80
2017,06,15,16,26,369.20
2017,06,15,16,27,359.00
2017,06,15,16,28,348.00
2017,06,15,16,29,327.50
2017,06,15,16,30,328.30
2017,06,15,16,31,323.30
2017,06,15,16,32,315.10
2017,06,15,16,33,301.00
2017,06,15,16,34,298.10
2017,06,15,16,35,285.20
2017,06,15,16,36,273.90
2017,06,15,16,37,262.50
2017,06,15,16,38,266.60
2017,06,15,16,39,268.30
2017,06,15,16,40,269.00
2017,06,15,16,41,284.30
2017,06,15,16,42,272.00
2017,06,15,16,43,282.50
2017,06,15,16,44,303.50
2017,06,15,16,45,332.10
2017,06,15,16,46,328.10
2017,06,15,16,47,295.10
2017,06,15,16,48,296.60
2017,06,15,16,49,278.00
2017,06,15,16,50,266.20
2017,06,15,16,51,275.30
2017,06,15,16,52,283.30
2017,06,15,16,53,293.60
2017,06,15,16,54,303.20
2017,06,15,16,55,310.20
2017,06,15,16,56,314.70
2017,06,15,16,57,314.00
2017,06,15,16,58,335.20
2017,06,15,16,59,343.10
2017,06,15,17,00,318.80
2017,06,15,17,01,301.20
2017,06,15,17,02,284.20
2017,06,15,17,03,256.70
2017,06,15,17,04,239.80
2017,06,15,17,05,238.60
2017,06,15,17,06,243.10
2017,06,15,17,07,259.50
2017,06,15,17,08,278.10
2017,06,15,17,09,271.00
2017,06,15,17,10,250.60
2017,06,15,17,11,240.80
2017,06,15,17,12,247.20
2017,06,15,17,13,234.20
2017,06,15,17,14,222.60
2017,06,15,17,15,223.80
2017,06,15,17,16,234.70
2017,06,15,17,17,233.30
2017,06,15,17,18,213.40
2017,06,15,17,19,201.40
2017,06,15,17,20,201.70
2017,06,15,17,21,195.80
2017,06,15,17,22,175.40